AirNav   Duncan Aviation - Near you to keep you flying
 
 515 users online  

SC35 Ehrhardt Airport
Ehrhardt, South Carolina, USA

GOING TO EHRHARDT?


FAA INFORMATION EFFECTIVE 03 NOVEMBER 2022

Location

FAA Identifier: SC35
Lat/Long: 33-05-22.5750N 081-00-29.3650W
33-05.376250N 081-00.489417W
33.0896042,-81.0081569
(estimated)
Elevation: 146 ft. / 45 m (estimated)
Variation: 04W (1985)
From city: 1 mile SE of EHRHARDT, SC
Time zone: UTC -5 (UTC -4 during Daylight Saving Time)
Zip code: 29081

Airport Operations

Airport use: Private use. Permission required prior to landing
Activation date: 09/1977
Control tower: no
ARTCC: JACKSONVILLE CENTER
FSS: ANDERSON FLIGHT SERVICE STATION
Attendance: UNATNDD
Wind indicator: yes
Segmented circle: no

Airport Communications

WX AWOS-3PT at AQX (14 nm SW): 118.950 (803-584-3696)

Nearby radio navigation aids

VOR radial/distance  VOR name  Freq  Var
ALDr073/(15.0)ALLENDALE VOR116.7001W
VANr237/36.4VANCE VORTAC110.4006W

 
NDB name  Hdg/Dist  Freq  Var  ID
DORCHESTER COUNTY280/36.836507WDYB -.. -.-- -...
SYLVANIA055/39.624507WJYL .--- -.-- .-..

Airport Services

Runway Information

Runway 11/29

Dimensions: 3400 x 80 ft. / 1036 x 24 m
Surface: turf
RUNWAY 11  RUNWAY 29
Traffic pattern: leftleft

Airport Ownership and Management from official FAA records

Ownership: Privately-owned
Owner: G. D. VARN
BOX 97
EHRHARDT, SC 29081
Phone 803-267-3882
Manager: G. D. VARN
PO BOX 44
EHRHARDT, SC 29081
Phone 803-300-0091

Airport Operational Statistics

Aircraft based on the field: 3
Single engine airplanes: 3
    

Additional Remarks

FOR CD CTC JACKSONVILLE ARTCC AT 904-845-1592.

Instrument Procedures

There are no published instrument procedures at SC35.

Some nearby airports with instrument procedures:

99N - Bamberg County Airport (14 nm N)
KAQX - Allendale County Airport (14 nm SW)
KRBW - Lowcountry Regional Airport (21 nm SE)
KBNL - Barnwell Regional Airport (22 nm NW)
KOGB - Orangeburg Municipal Airport (23 nm N)
 
Loc | Ops | Rwys | IFR | FBO | Links
Com | Nav | Svcs | Stats | Notes
Area around SC35 (Ehrhardt Airport)
 
Road maps at: MapQuest Bing Google
 
Aerial photo
No photo
 
Sectional chart

 
Airport distance calculator
Flying to Ehrhardt Airport? Find the distance to fly.

From to SC35

Sunrise and sunset
Times for 29-Nov-2022
 Local
(UTC-5)
 Zulu
(UTC)
Morning civil twilight06:4211:42
Sunrise07:0812:08
Sunset17:1622:16
Evening civil twilight17:4322:43

Current date and time
Zulu (UTC)  29-Nov-2022 09:20:52
Local (UTC-5)  29-Nov-2022 04:20:52
 
METAR
KAQX 
14nm SW 
290855Z AUTO 00000KT 10SM CLR 06/06 A3011 RMK AO2 TSNO
KRBW 
21nm SE 
290855Z AUTO 00000KT 10SM CLR 05/04 A3012 RMK AO2
KBNL 
22nm NW 
290855Z AUTO 00000KT 10SM CLR 05/04 A3012 RMK AO2
KOGB 
24nm N 
290853Z AUTO 00000KT 10SM CLR 06/06 A3012 RMK AO2 SLP198 T00610056 53004
TAF
KOGB 
24nm N 
290530Z 2906/3006 00000KT P6SM SKC FM290800 00000KT 4SM BR SKC TEMPO 2909/2913 1SM BR SCT002 FM291500 12005KT P6SM SKC
NOTAMs
Click for the latest NOTAMs
NOTAMs are issued by the DoD/FAA and will open in a separate window not controlled by AirNav.

 

 
 

Would you like to see your business listed on this page?

 If your business provides an interesting product or service to pilots, flight crews, aircraft, or users of the Ehrhardt Airport, you should consider listing it here.  To start the listing process, click on the button below
 
Add a business
 

Other Pages about Ehrhardt Airport

Update a link
 
Copyright © AirNav, LLC. All rights reserved. Privacy Policy  Contact